FW6620 Weather Reports


time (UTC)temp
F
wind
direction
speed
knots
gust
knots
rain 1hr
in
rain 24hr
in
rain mn
in
humidity
%
barometer
mb
20260503022050 61 0 0.0 0.0 0.00 0.18 0.14 78 1021.4
20260503021552 61 0 0.0 0.0 0.00 0.18 0.14 77 1021.1
20260503021047 61 0 0.0 0.9 0.00 0.18 0.14 77 1021.1
20260503020547 62 0 0.0 0.9 0.00 0.18 0.14 77 1021.0
20260503020052 62 0 0.0 0.9 0.00 0.18 0.14 75 1021.0
20260503015549 63 0 0.0 0.0 0.00 0.19 0.14 75 1021.0
20260503015049 63 0 0.0 0.0 0.00 0.19 0.14 75 1021.0
20260503014601 64 0 0.0 0.0 0.00 0.19 0.14 74 1021.0
20260503014046 65 0 0.0 0.0 0.00 0.19 0.14 72 1021.0
20260503013549 65 0 0.0 0.0 0.00 0.19 0.14 73 1021.1
20260503013050 66 0 0.0 0.0 0.00 0.19 0.14 73 1021.0
20260503012546 66 0 0.0 0.9 0.00 0.19 0.14 70 1021.0
20260503012046 66 0 0.0 0.9 0.00 0.19 0.14 66 1020.9
20260503011610 67 0 0.0 0.0 0.00 0.19 0.14 66 1020.6
20260503011047 67 0 0.0 0.0 0.00 0.19 0.14 68 1020.6
20260503010548 67 0 0.0 0.9 0.00 0.19 0.14 66 1020.6
20260503010050 67 0 0.0 0.9 0.00 0.19 0.14 66 1020.7
20260503005547 68 0 0.0 0.0 0.00 0.21 0.14 65 1020.6
20260503005047 68 0 0.0 0.9 0.00 0.21 0.14 60 1020.6
20260503004548 68 0 0.0 0.9 0.00 0.21 0.14 63 1020.5
20260503004047 68 0 0.0 0.0 0.00 0.21 0.14 65 1020.5
20260503003549 68 0 0.0 0.0 0.00 0.21 0.14 65 1020.5
20260503003107 69 0 0.0 0.0 0.00 0.21 0.14 64 1020.5
20260503002547 69 0 0.0 0.9 0.00 0.21 0.14 66 1020.4
20260503002047 69 0 0.0 0.9 0.00 0.21 0.14 66 1020.4
20260503001553 70 0 0.0 0.9 0.00 0.21 0.14 67 1020.4
20260503001046 70 0 0.0 0.0 0.00 0.21 0.14 62 1020.4
20260503000546 70 0 0.0 0.0 0.00 0.21 0.14 61 1020.3
20260503000050 70 0 0.0 0.0 0.00 0.21 0.14 59 1020.4
20260502235547 70 0 0.0 0.0 0.00 0.22 0.14 59 1020.3
20260502235048 71 0 0.0 0.9 0.01 0.22 0.14 61 1020.3
20260502234609 71 0 0.0 0.9 0.01 0.22 0.14 60 1020.3
20260502234047 71 0 0.0 0.9 0.01 0.22 0.14 60 1020.3
20260502233548 71 0 0.0 0.9 0.01 0.22 0.14 58 1020.3
20260502233050 71 0 0.0 0.9 0.01 0.22 0.14 60 1020.2
20260502232547 71 0 0.0 0.9 0.01 0.22 0.14 60 1020.2
20260502232047 71 0 0.0 0.9 0.01 0.22 0.14 60 1020.2
20260502231551 71 0 0.0 0.9 0.01 0.22 0.14 56 1020.2
20260502231049 72 0 0.0 0.9 0.01 0.22 0.14 62 1020.2
20260502230547 72 0 0.0 0.9 0.01 0.22 0.14 58 1020.2
20260502230100 72 0 0.0 0.9 0.01 0.22 0.14 55 1020.2
20260502225546 73 0 0.0 0.9 0.01 0.23 0.14 56 1020.2
20260502225047 73 0 0.0 2.6 0.00 0.22 0.13 53 1020.2
20260502224556 73 0 0.0 3.5 0.00 0.22 0.13 57 1020.2
20260502224047 73 0 0.0 3.5 0.00 0.22 0.13 49 1020.2
20260502223547 73 0 0.0 2.6 0.00 0.22 0.13 51 1020.2
20260502223100 73 0 0.0 2.6 0.00 0.22 0.13 51 1020.3
20260502222546 73 0 0.0 2.6 0.00 0.22 0.13 52 1020.4
20260502222046 73 44 0.0 1.7 0.00 0.22 0.13 53 1020.3
20260502221549 73 0 0.0 1.7 0.00 0.22 0.13 53 1020.4
20260502221046 73 0 0.0 2.6 0.00 0.22 0.13 48 1020.4
20260502220546 73 87 0.0 2.6 0.00 0.22 0.13 48 1020.4
20260502220100 73 0 0.0 2.6 0.00 0.22 0.13 50 1020.5
20260502215547 73 0 0.0 2.6 0.00 0.24 0.13 49 1020.6
20260502215046 73 47 0.0 3.5 0.00 0.24 0.13 51 1020.5
20260502214551 73 0 0.0 3.5 0.00 0.24 0.13 49 1020.6
20260502214046 73 47 0.9 3.5 0.00 0.24 0.13 50 1020.7
20260502213546 73 48 0.0 2.6 0.00 0.24 0.13 50 1020.7
20260502213052 73 48 0.0 1.7 0.00 0.24 0.13 48 1020.7
20260502212548 74 0 0.0 2.6 0.00 0.24 0.13 49 1020.8
20260502212046 74 0 0.9 3.5 0.00 0.24 0.13 52 1020.8
20260502211552 74 0 0.0 3.5 0.00 0.24 0.13 51 1020.9
20260502211045 73 0 0.0 1.7 0.00 0.24 0.13 49 1021.0
20260502210547 73 0 0.0 1.7 0.00 0.24 0.13 46 1021.0
20260502210054 73 0 0.0 1.7 0.00 0.24 0.13 49 1021.1
20260502205547 73 170 0.0 3.5 0.01 0.26 0.13 47 1021.2
20260502205047 73 0 0.0 3.5 0.01 0.26 0.13 49 1021.2
20260502204559 73 173 0.0 2.6 0.01 0.26 0.13 49 1021.4
20260502204047 73 130 0.0 2.6 0.01 0.26 0.13 51 1021.5
20260502203547 73 130 0.0 2.6 0.01 0.26 0.13 50 1021.4
20260502203116 73 40 0.9 3.5 0.01 0.26 0.13 54 1021.5
20260502202546 72 0 0.0 4.3 0.01 0.26 0.13 52 1021.5
20260502202049 72 118 0.0 4.3 0.01 0.26 0.13 54 1021.5
20260502201557 72 116 0.0 3.5 0.01 0.26 0.13 48 1021.6
20260502201049 72 0 0.0 2.6 0.01 0.26 0.13 48 1021.7
20260502200548 72 112 0.0 2.6 0.01 0.26 0.13 48 1021.7
20260502200046 72 112 0.0 2.6 0.01 0.26 0.13 54 1021.8
20260502195547 72 0 0.0 2.6 0.00 0.27 0.12 53 1021.9
20260502195045 72 0 0.0 1.7 0.00 0.27 0.12 59 1021.7
20260502194555 72 0 0.0 1.7 0.00 0.27 0.12 56 1021.8
20260502194047 72 0 0.0 3.5 0.00 0.27 0.12 57 1021.7
20260502193547 72 0 0.0 4.3 0.00 0.27 0.12 57 1021.8
20260502193106 72 40 0.9 4.3 0.00 0.27 0.12 57 1021.8
20260502192546 71 0 0.0 3.5 0.00 0.27 0.12 54 1022.0
20260502192046 71 110 0.0 6.1 0.00 0.27 0.12 56 1022.1
20260502191552 71 0 0.9 6.1 0.00 0.27 0.12 57 1022.0
20260502191048 71 25 0.9 3.5 0.00 0.27 0.12 60 1022.0
20260502190547 71 0 0.0 2.6 0.00 0.27 0.12 59 1022.0
20260502190052 71 0 0.0 2.6 0.00 0.27 0.12 58 1021.9
20260502185546 70 113 0.0 2.6 0.00 0.30 0.12 56 1022.1
20260502185046 70 0 0.0 2.6 0.00 0.30 0.12 58 1022.2
20260502184602 70 75 0.0 2.6 0.01 0.30 0.12 61 1022.2
20260502184045 70 0 0.0 2.6 0.01 0.30 0.12 61 1022.2
20260502183546 70 74 0.0 2.6 0.01 0.30 0.12 64 1022.2
20260502183052 70 0 0.0 1.7 0.01 0.30 0.12 63 1022.3
20260502182547 69 0 0.0 2.6 0.01 0.30 0.12 63 1022.4
20260502182046 69 0 0.0 2.6 0.01 0.30 0.12 66 1022.4
20260502181556 69 95 0.9 2.6 0.01 0.30 0.12 67 1022.4
20260502181047 69 99 0.0 2.6 0.01 0.30 0.12 62 1022.6
20260502180547 69 0 0.0 2.6 0.01 0.30 0.12 65 1022.7
20260502164046 64 0 0.0 1.7 0.01 0.35 0.11 73 1023.4
20260502163546 64 81 0.0 1.7 0.00 0.34 0.10 75 1023.5
20260502163058 63 0 0.0 2.6 0.01 0.34 0.10 78 1023.5
20260502162546 63 81 0.0 2.6 0.01 0.34 0.10 80 1023.5
20260502162045 62 0 0.0 2.6 0.01 0.34 0.10 76 1023.5
20260502161556 62 0 0.0 1.7 0.01 0.34 0.10 80 1023.6
20260502161045 62 81 0.0 1.7 0.01 0.34 0.10 84 1023.6
20260502160547 61 0 0.0 1.7 0.01 0.34 0.10 84 1023.7
20260502152047 57 0 0.0 0.9 0.01 0.36 0.09 95 1023.7
20260502151612 57 0 0.0 2.6 0.01 0.36 0.09 94 1023.6
20260502151046 57 0 0.0 2.6 0.01 0.36 0.09 96 1023.6
20260502150546 56 0 0.0 0.9 0.01 0.36 0.09 96 1023.5
20260502130546 51 0 0.0 0.9 0.00 0.45 0.07 98 1022.5
20260502123545 49 0 0.0 1.7 0.01 0.52 0.07 97 1022.1
20260502123048 49 0 0.0 1.7 0.01 0.52 0.07 97 1022.0
20260502122545 49 82 0.0 0.9 0.01 0.52 0.07 97 1021.9
20260502122046 49 0 0.0 0.9 0.01 0.52 0.07 97 1021.8
20260502121551 49 82 0.0 0.9 0.01 0.52 0.07 97 1021.7
20260502121046 49 0 0.0 0.9 0.01 0.52 0.07 97 1021.7
20260502120546 49 0 0.0 0.9 0.01 0.52 0.07 97 1021.4
20260502115547 49 0 0.0 0.9 0.00 0.61 0.06 97 1021.3
20260502115046 49 0 0.0 0.9 0.00 0.61 0.06 97 1021.2
20260502114559 49 0 0.0 0.9 0.01 0.61 0.06 97 1021.2
20260502114047 49 0 0.0 0.9 0.01 0.61 0.06 97 1020.9
20260502113547 49 0 0.0 1.7 0.01 0.61 0.06 97 1021.0
20260502113104 49 0 0.0 1.7 0.01 0.61 0.06 97 1020.9
20260502112546 49 0 0.0 0.9 0.01 0.61 0.06 97 1020.9
20260502112048 49 0 0.0 1.7 0.01 0.61 0.06 97 1020.8
20260502111603 49 0 0.0 1.7 0.01 0.61 0.06 97 1020.8
20260502111047 49 82 0.0 0.9 0.01 0.61 0.06 97 1020.8
20260502110548 49 0 0.0 0.9 0.01 0.61 0.06 97 1020.8
20260502110100 49 0 0.0 0.9 0.01 0.61 0.06 97 1020.7
20260502105549 49 0 0.0 0.0 0.01 0.70 0.06 97 1020.7
20260502105050 49 0 0.0 0.0 0.01 0.70 0.06 97 1020.7
20260502104607 49 0 0.0 0.0 0.00 0.69 0.05 97 1020.6
20260502104047 49 0 0.0 0.0 0.01 0.69 0.05 97 1020.5
20260502103549 50 0 0.0 0.0 0.01 0.69 0.05 97 1020.5
20260502103059 50 0 0.0 0.0 0.01 0.69 0.05 97 1020.4
20260502102552 50 0 0.0 0.9 0.01 0.69 0.05 97 1020.2
20260502102048 50 0 0.0 0.9 0.01 0.69 0.05 97 1020.2
20260502101604 50 0 0.0 0.9 0.01 0.69 0.05 97 1020.1
20260502101048 50 82 0.0 0.9 0.01 0.69 0.05 97 1020.0
20260502100548 50 0 0.0 0.9 0.01 0.69 0.05 97 1020.0
20260502091048 51 82 0.0 0.9 0.01 0.77 0.04 97 1019.4
20260502090549 51 82 0.0 0.9 0.01 0.77 0.04 97 1019.4
20260502071047 51 0 0.0 0.9 0.01 0.80 0.02 97 1019.1
20260502070546 51 0 0.0 0.9 0.01 0.80 0.02 97 1019.0
20260502070111 51 0 0.0 0.9 0.01 0.80 0.02 97 1019.0
20260502065546 51 0 0.0 0.9 0.01 0.80 0.02 97 1018.9
20260502065047 51 0 0.0 0.0 0.01 0.80 0.02 97 1018.9
20260502064552 51 0 0.0 0.0 0.01 0.80 0.02 97 1019.0
20260502064045 51 0 0.0 0.0 0.01 0.80 0.02 97 1018.9
20260502063545 51 0 0.0 0.9 0.01 0.79 0.01 97 1019.1
20260502063111 51 0 0.0 0.9 0.01 0.79 0.01 97 1019.1
20260502062549 51 0 0.0 0.9 0.01 0.79 0.01 97 1019.2
20260502062046 51 0 0.0 0.9 0.01 0.79 0.01 97 1019.2
20260502061554 51 0 0.0 0.0 0.01 0.79 0.01 97 1019.3
20260502061046 51 0 0.0 0.0 0.01 0.79 0.01 97 1019.3
20260502060546 52 0 0.0 0.9 0.01 0.79 0.01 97 1019.4
20260502060059 52 0 0.0 0.9 0.01 0.79 0.01 97 1019.4
20260502055546 52 0 0.0 0.9 0.01 0.79 0.01 97 1019.4
20260502055049 52 0 0.0 0.9 0.01 0.79 0.01 97 1019.4
20260502054602 52 0 0.0 0.9 0.01 0.79 0.01 97 1019.3
20260502054045 52 0 0.0 0.9 0.02 0.79 0.01 97 1019.3
20260502053545 52 0 0.0 0.9 0.01 0.78 0.00 97 1019.3
20260502053052 51 0 0.0 0.0 0.01 0.78 0.00 97 1019.1
20260502052545 52 0 0.0 0.0 0.01 0.78 0.00 97 1019.1
20260502052046 52 0 0.0 0.0 0.01 0.78 0.00 97 1019.1
20260502051553 52 0 0.0 0.0 0.01 0.78 0.00 97 1019.1
20260502051045 52 0 0.0 0.0 0.01 0.78 0.00 97 1019.1
20260502050545 52 0 0.0 0.0 0.01 0.78 0.00 96 1019.0
20260502050056 52 0 0.0 0.0 0.01 0.78 0.00 96 1019.1
20260502045545 52 0 0.0 0.0 0.01 0.78 0.78 96 1018.9
20260502045047 52 0 0.0 0.0 0.02 0.78 0.78 97 1018.9
20260502044546 52 0 0.0 0.0 0.01 0.77 0.77 97 1019.1
20260502044050 52 0 0.0 0.0 0.01 0.77 0.77 97 1019.1
20260502043547 52 0 0.0 0.0 0.01 0.77 0.77 97 1019.2
20260502043108 52 0 0.0 0.0 0.01 0.77 0.77 96 1019.2
20260502042548 53 0 0.0 0.0 0.01 0.77 0.77 96 1019.1
20260502042050 53 0 0.0 0.0 0.01 0.77 0.77 96 1019.2
20260502041622 53 0 0.0 0.9 0.01 0.77 0.77 97 1019.0
20260502041050 53 0 0.0 0.9 0.01 0.77 0.77 97 1019.0
20260502040549 53 0 0.0 0.9 0.02 0.77 0.77 96 1018.9
20260502040057 53 0 0.0 0.9 0.02 0.77 0.77 96 1019.0
20260502035548 53 0 0.0 0.9 0.02 0.78 0.77 96 1019.1
20260502035048 53 82 0.0 0.9 0.01 0.77 0.76 96 1019.1
20260502034552 53 0 0.0 0.9 0.01 0.77 0.76 97 1019.1
20260502034048 53 82 0.0 1.7 0.01 0.77 0.76 97 1019.2
20260502033548 53 0 0.0 1.7 0.01 0.77 0.76 97 1019.2
20260502033049 53 0 0.0 1.7 0.01 0.77 0.76 97 1019.2
20260502032548 53 82 0.0 1.7 0.01 0.77 0.76 97 1019.1
20260502032050 53 82 0.0 1.7 0.01 0.77 0.76 96 1019.1
20260502031553 53 82 0.0 1.7 0.02 0.77 0.76 96 1018.9
20260502031048 53 0 0.0 1.7 0.02 0.77 0.76 97 1018.7
20260502030548 53 82 0.0 1.7 0.01 0.76 0.75 97 1018.7
20260502030110 53 0 0.0 1.7 0.01 0.76 0.75 97 1018.5
20260502025548 53 82 0.0 1.7 0.01 0.76 0.75 97 1018.6
20260502025047 53 0 0.0 1.7 0.01 0.76 0.75 97 1018.3
20260502024604 53 0 0.0 1.7 0.01 0.76 0.75 97 1018.5
20260502024047 53 0 0.0 1.7 0.01 0.76 0.75 97 1018.3
20260502023547 53 0 0.0 1.7 0.01 0.76 0.75 97 1018.2
20260502023117 53 82 0.0 2.6 0.02 0.76 0.75 97 1018.2
20260502022549 53 0 0.0 2.6 0.02 0.76 0.75 97 1018.0